• In Czech Republic
  • List of Countries
  • For 7 days
  • Water Temperature
  • Satellite Maps
  • Weather Map
  • Weather Widgets
  • user-avatar
    Login

    Hourly Weather Alcoi

    Today, 20 June, Wednesday

    Time Temperature Precipitation Wind Pressure Humidity
    00:00 +22°C° 0 mm 1 mps 718 mmHg 60%
    01:00 +22°C° 0 mm 1 mps 718 mmHg 61%
    02:00 +21°C° 0 mm 1 mps 717 mmHg 63%
    03:00 +19°C° 0 mm 0 mps 717 mmHg 65%
    04:00 +19°C° 0 mm 0 mps 717 mmHg 62%
    05:00 +20°C° 0 mm 0 mps 717 mmHg 58%
    06:00 +20°C° 0 mm 0 mps 717 mmHg 55%
    07:00 +24°C° 0 mm 1 mps 718 mmHg 49%
    08:00 +25°C° 0 mm 1 mps 718 mmHg 43%
    09:00 +26°C° 0 mm 2 mps 718 mmHg 38%
    10:00 +28°C° 0 mm 2 mps 718 mmHg 35%
    11:00 +29°C° 0 mm 3 mps 718 mmHg 33%
    12:00 +30°C° 0 mm 4 mps 718 mmHg 30%
    13:00 +30°C° 0 mm 4 mps 718 mmHg 31%
    14:00 +30°C° 0 mm 4 mps 717 mmHg 31%
    15:00 +32°C° 0 mm 4 mps 717 mmHg 32%
    16:00 +30°C° 0 mm 4 mps 717 mmHg 35%
    17:00 +29°C° 0 mm 4 mps 717 mmHg 38%
    18:00 +28°C° 0 mm 3 mps 717 mmHg 41%
    19:00 +27°C° 0 mm 3 mps 717 mmHg 45%
    20:00 +25°C° 0 mm 2 mps 717 mmHg 49%
    21:00 +24°C° 0 mm 2 mps 717 mmHg 53%
    22:00 +24°C° 0 mm 2 mps 717 mmHg 55%
    23:00 +23°C° 0 mm 2 mps 717 mmHg 58%

    Tomorrow, 21 June, Thursday

    Time Temperature Precipitation Wind Pressure Humidity
    00:00 +22°C° 0 mm 1 mps 717 mmHg 60%
    01:00 +21°C° 0 mm 2 mps 717 mmHg 60%
    02:00 +20°C° 0 mm 2 mps 717 mmHg 60%
    03:00 +20°C° 0 mm 2 mps 716 mmHg 60%
    04:00 +20°C° 0 mm 2 mps 717 mmHg 57%
    05:00 +20°C° 0 mm 2 mps 717 mmHg 54%
    06:00 +21°C° 0 mm 2 mps 717 mmHg 50%
    07:00 +22°C° 0 mm 3 mps 717 mmHg 45%
    08:00 +25°C° 0 mm 3 mps 717 mmHg 39%
    09:00 +27°C° 0 mm 3 mps 717 mmHg 34%
    10:00 +28°C° 0 mm 3 mps 717 mmHg 31%
    11:00 +29°C° 0 mm 4 mps 717 mmHg 29%
    12:00 +32°C° 0 mm 4 mps 717 mmHg 26%
    13:00 +32°C° 0 mm 4 mps 717 mmHg 27%
    14:00 +32°C° 0 mm 4 mps 717 mmHg 27%
    15:00 +33°C° 0 mm 4 mps 717 mmHg 28%
    16:00 +32°C° 0 mm 4 mps 716 mmHg 30%
    17:00 +30°C° 0 mm 4 mps 716 mmHg 33%
    18:00 +29°C° 0 mm 3 mps 716 mmHg 35%
    19:00 +28°C° 0 mm 3 mps 716 mmHg 40%
    20:00 +26°C° 0 mm 2 mps 716 mmHg 44%
    21:00 +25°C° 0 mm 1 mps 716 mmHg 48%
    22:00 +24°C° 0 mm 1 mps 716 mmHg 51%
    23:00 +24°C° 0 mm 1 mps 716 mmHg 54%

    Day after tomorrow, 22 June, Friday

    Time Temperature Precipitation Wind Pressure Humidity
    00:00 +21°C° 0 mm 0 mps 716 mmHg 57%
    01:00 +21°C° 0 mm 0 mps 716 mmHg 58%
    02:00 +22°C° 0 mm 1 mps 716 mmHg 58%
    03:00 +22°C° 0 mm 1 mps 716 mmHg 59%
    04:00 +22°C° 0 mm 1 mps 716 mmHg 56%
    05:00 +23°C° 0 mm 1 mps 716 mmHg 53%
    06:00 +24°C° 0 mm 1 mps 716 mmHg 49%
    07:00 +25°C° 0 mm 1 mps 716 mmHg 43%
    08:00 +27°C° 0 mm 1 mps 716 mmHg 36%
    09:00 +29°C° 0 mm 1 mps 716 mmHg 30%
    10:00 +30°C° 0 mm 2 mps 716 mmHg 27%
    11:00 +33°C° 0 mm 3 mps 716 mmHg 25%
    12:00 +34°C° 0 mm 4 mps 717 mmHg 22%
    13:00 +34°C° 0 mm 4 mps 716 mmHg 23%
    14:00 +34°C° 0 mm 5 mps 716 mmHg 24%
    15:00 +34°C° 0 mm 5 mps 716 mmHg 25%
    16:00 +33°C° 0 mm 4 mps 715 mmHg 28%
    17:00 +32°C° 0 mm 4 mps 715 mmHg 31%
    18:00 +30°C° 0 mm 4 mps 715 mmHg 34%
    19:00 +29°C° 0 mm 3 mps 715 mmHg 38%
    20:00 +27°C° 0 mm 3 mps 715 mmHg 43%
    21:00 +26°C° 0 mm 2 mps 716 mmHg 48%
    22:00 +25°C° 0 mm 2 mps 716 mmHg 50%
    23:00 +25°C° 0 mm 2 mps 716 mmHg 53%

    23 June, Saturday

    Time Temperature Precipitation Wind Pressure Humidity
    00:00 +24°C° 0 mm 2 mps 716 mmHg 55%
    01:00 +24°C° 0 mm 1 mps 716 mmHg 56%
    02:00 +23°C° 0 mm 1 mps 716 mmHg 57%
    03:00 +23°C° 0 mm 1 mps 715 mmHg 58%
    04:00 +23°C° 0 mm 1 mps 715 mmHg 55%
    05:00 +24°C° 0 mm 2 mps 716 mmHg 51%
    06:00 +25°C° 0 mm 2 mps 716 mmHg 48%
    07:00 +26°C° 0 mm 2 mps 716 mmHg 44%
    08:00 +28°C° 0 mm 3 mps 716 mmHg 40%
    09:00 +29°C° 0 mm 3 mps 716 mmHg 36%
    10:00 +30°C° 0 mm 3 mps 716 mmHg 34%
    11:00 +33°C° 0 mm 4 mps 716 mmHg 32%
    12:00 +34°C° 0 mm 5 mps 716 mmHg 30%
    13:00 +34°C° 0 mm 5 mps 716 mmHg 30%
    14:00 +34°C° 0 mm 5 mps 716 mmHg 31%
    15:00 +34°C° 0 mm 5 mps 716 mmHg 31%
    16:00 +33°C° 0 mm 5 mps 715 mmHg 34%
    17:00 +32°C° 0 mm 5 mps 715 mmHg 37%
    18:00 +30°C° 0 mm 4 mps 715 mmHg 41%
    19:00 +29°C° 0 mm 3 mps 715 mmHg 46%
    20:00 +27°C° 0 mm 3 mps 716 mmHg 51%
    21:00 +26°C° 0 mm 2 mps 716 mmHg 57%
    22:00 +25°C° 0 mm 2 mps 716 mmHg 60%
    23:00 +24°C° 0 mm 2 mps 716 mmHg 63%

    24 June, Sunday

    Time Temperature Precipitation Wind Pressure Humidity
    00:00 +24°C° 0 mm 1 mps 715 mmHg 67%
    01:00 +23°C° 0 mm 1 mps 715 mmHg 68%
    02:00 +23°C° 0 mm 1 mps 715 mmHg 70%
    03:00 +22°C° 0 mm 1 mps 714 mmHg 72%
    04:00 +23°C° 0 mm 1 mps 715 mmHg 68%
    05:00 +23°C° 0 mm 1 mps 715 mmHg 65%
    06:00 +24°C° 0 mm 2 mps 715 mmHg 62%
    07:00 +26°C° 0 mm 2 mps 715 mmHg 55%
    08:00 +27°C° 0 mm 2 mps 715 mmHg 48%
    09:00 +29°C° 0 mm 2 mps 715 mmHg 41%
    10:00 +30°C° 0 mm 3 mps 715 mmHg 37%
    11:00 +33°C° 0 mm 3 mps 715 mmHg 33%
    12:00 +34°C° 0 mm 4 mps 715 mmHg 29%
    13:00 +34°C° 0 mm 4 mps 715 mmHg 29%
    14:00 +35°C° 0 mm 4 mps 715 mmHg 29%
    15:00 +35°C° 0 mm 4 mps 714 mmHg 29%
    16:00 +34°C° 0 mm 4 mps 714 mmHg 32%
    17:00 +33°C° 0 mm 4 mps 714 mmHg 36%
    18:00 +31°C° 0 mm 3 mps 714 mmHg 39%
    19:00 +29°C° 0 mm 3 mps 714 mmHg 45%
    20:00 +28°C° 0 mm 2 mps 714 mmHg 51%
    21:00 +26°C° 0 mm 2 mps 715 mmHg 57%
    22:00 +25°C° 0 mm 1 mps 715 mmHg 59%
    23:00 +25°C° 0 mm 1 mps 715 mmHg 61%

    25 June, Monday

    Time Temperature Precipitation Wind Pressure Humidity
    00:00 +24°C° 0 mm 1 mps 715 mmHg 63%
    01:00 +24°C° 0 mm 1 mps 714 mmHg 63%
    02:00 +23°C° 0 mm 1 mps 714 mmHg 64%
    03:00 +21°C° 0 mm 0 mps 714 mmHg 64%
    04:00 +23°C° 0 mm 1 mps 714 mmHg 62%
    05:00 +24°C° 0 mm 1 mps 714 mmHg 60%
    06:00 +24°C° 0 mm 1 mps 715 mmHg 58%
    07:00 +25°C° 0 mm 1 mps 715 mmHg 52%
    08:00 +27°C° 0 mm 2 mps 715 mmHg 47%
    09:00 +29°C° 0 mm 2 mps 715 mmHg 42%
    10:00 +30°C° 0 mm 2 mps 715 mmHg 39%
    11:00 +31°C° 0 mm 3 mps 715 mmHg 36%
    12:00 +33°C° 0 mm 3 mps 715 mmHg 34%
    13:00 +34°C° 0 mm 4 mps 715 mmHg 35%
    14:00 +34°C° 0 mm 5 mps 715 mmHg 35%
    15:00 +34°C° 0 mm 5 mps 715 mmHg 36%
    16:00 +33°C° 0 mm 5 mps 715 mmHg 40%
    17:00 +30°C° 0 mm 4 mps 715 mmHg 43%
    18:00 +29°C° 0 mm 4 mps 715 mmHg 47%
    19:00 +27°C° 0.2 mm 4 mps 716 mmHg 55%
    20:00 +26°C° 0.2 mm 3 mps 716 mmHg 63%
    21:00 +24°C° 0.2 mm 3 mps 717 mmHg 71%
    22:00 +24°C° 0.1 mm 2 mps 717 mmHg 72%
    23:00 +24°C° 0.1 mm 1 mps 717 mmHg 73%
    Show more